DLH341 EDDC-LKPR

Flight info

Callsign DLH341
Flight time 0h 20m
Altitude 17000
Route DEKOV Z31 GOLOP
Aircraft A321/M-DE2E3FGIJ1LORVWXYZ/HB2

Departure

Time 2026-05-06 18:37
Airport Dresden Airport (EDDC)

Arrival

Time 2026-05-06 18:57
Airport Václav Havel Airport Prague (LKPR)
Time Latitude Longitude Altitude Speed Heading
2026-05-06 18:12 51.12594 13.76603 753 ft 0 kts 221°
2026-05-06 18:29 51.12602 13.76613 750 ft 4 kts 221°
2026-05-06 18:29 51.12622 13.76641 750 ft 4 kts 221°
2026-05-06 18:30 51.12640 13.76665 749 ft 2 kts 221°
2026-05-06 18:30 51.12653 13.76693 748 ft 4 kts 274°
2026-05-06 18:30 51.12644 13.76726 750 ft 4 kts 310°
2026-05-06 18:30 51.12630 13.76752 748 ft 0 kts 310°
2026-05-06 18:33 51.12632 13.76748 749 ft 1 kts 310°
2026-05-06 18:34 51.12653 13.76709 749 ft 9 kts 311°
2026-05-06 18:34 51.12698 13.76626 752 ft 11 kts 310°
2026-05-06 18:34 51.12751 13.76528 750 ft 12 kts 310°
2026-05-06 18:34 51.12795 13.76416 754 ft 12 kts 269°
2026-05-06 18:35 51.12736 13.76316 752 ft 13 kts 220°
2026-05-06 18:35 51.12670 13.76225 755 ft 12 kts 221°
2026-05-06 18:35 51.12603 13.76132 754 ft 13 kts 221°
2026-05-06 18:35 51.12619 13.75971 761 ft 24 kts 309°
2026-05-06 18:36 51.12745 13.75861 763 ft 19 kts 31°
2026-05-06 18:36 51.12934 13.76108 754 ft 69 kts 41°
2026-05-06 18:36 51.13491 13.76876 739 ft 140 kts 40°
2026-05-06 18:36 51.14316 13.77995 1145 ft 158 kts 40°
2026-05-06 18:37 51.15159 13.79174 1978 ft 159 kts 42°
2026-05-06 18:37 51.15963 13.80358 2718 ft 164 kts 41°
2026-05-06 18:37 51.16797 13.81612 3335 ft 165 kts 42°
2026-05-06 18:37 51.17666 13.82873 3856 ft 173 kts 39°
2026-05-06 18:38 51.18618 13.84121 4365 ft 182 kts 37°
2026-05-06 18:38 51.19609 13.85528 4722 ft 202 kts 49°
2026-05-06 18:38 51.20310 13.87602 5037 ft 226 kts 78°
2026-05-06 18:38 51.20264 13.90130 5547 ft 234 kts 110°
2026-05-06 18:39 51.19503 13.92458 6124 ft 242 kts 134°
2026-05-06 18:39 51.18156 13.94142 6568 ft 256 kts 150°
2026-05-06 18:39 51.16583 13.95689 7011 ft 272 kts 151°
2026-05-06 18:40 51.13284 13.98848 8541 ft 279 kts 152°
2026-05-06 18:40 51.11616 14.00450 9340 ft 281 kts 152°
2026-05-06 18:40 51.09959 14.02051 10045 ft 287 kts 152°
2026-05-06 18:40 51.08163 14.03783 10253 ft 310 kts 152°
2026-05-06 18:41 51.06264 14.05619 10553 ft 325 kts 152°
2026-05-06 18:41 51.04341 14.07492 11339 ft 324 kts 152°
2026-05-06 18:41 51.02413 14.09371 12041 ft 326 kts 152°
2026-05-06 18:41 51.00465 14.11266 12600 ft 330 kts 152°
2026-05-06 18:42 50.98460 14.13205 12747 ft 347 kts 152°
2026-05-06 18:42 50.96334 14.15255 12781 ft 365 kts 152°
2026-05-06 18:42 50.94149 14.17364 12775 ft 369 kts 152°
2026-05-06 18:42 50.91952 14.19490 12774 ft 371 kts 151°
2026-05-06 18:43 50.89748 14.21626 12777 ft 371 kts 152°
2026-05-06 18:43 50.87531 14.23713 12761 ft 371 kts 153°
2026-05-06 18:43 50.85287 14.25750 12775 ft 372 kts 154°
2026-05-06 18:43 50.83032 14.27762 12772 ft 372 kts 154°
2026-05-06 18:44 50.80771 14.29765 12770 ft 372 kts 154°
2026-05-06 18:44 50.78536 14.31749 12745 ft 359 kts 154°
2026-05-06 18:44 50.76431 14.33630 12461 ft 345 kts 154°
2026-05-06 18:44 50.74274 14.35117 11965 ft 333 kts 170°
2026-05-06 18:45 50.72011 14.35250 11410 ft 323 kts 192°
2026-05-06 18:45 50.69895 14.34133 10812 ft 318 kts 204°
2026-05-06 18:45 50.67883 14.32742 10228 ft 317 kts 205°
2026-05-06 18:45 50.66567 14.31819 10067 ft 309 kts 205°
2026-05-06 18:46 50.64032 14.30035 9893 ft 288 kts 205°
2026-05-06 18:46 50.62237 14.28779 9772 ft 276 kts 205°
2026-05-06 18:46 50.60495 14.27559 9758 ft 272 kts 205°
2026-05-06 18:46 50.58774 14.26355 9764 ft 271 kts 205°
2026-05-06 18:47 50.57051 14.25152 9722 ft 270 kts 205°
2026-05-06 18:47 50.55345 14.23959 9328 ft 267 kts 205°
2026-05-06 18:47 50.53669 14.22784 8837 ft 259 kts 205°
2026-05-06 18:47 50.51999 14.21612 8751 ft 266 kts 205°
2026-05-06 18:48 50.50304 14.20422 8761 ft 268 kts 205°
2026-05-06 18:48 50.48599 14.19226 8742 ft 267 kts 205°
2026-05-06 18:48 50.46935 14.18058 8091 ft 263 kts 205°
2026-05-06 18:48 50.45260 14.16880 7287 ft 261 kts 205°
2026-05-06 18:49 50.43613 14.15714 6874 ft 260 kts 205°
2026-05-06 18:49 50.41953 14.14538 6758 ft 263 kts 205°
2026-05-06 18:49 50.40281 14.13348 6761 ft 264 kts 205°
2026-05-06 18:49 50.38609 14.12161 6761 ft 264 kts 205°
2026-05-06 18:50 50.36934 14.10972 6761 ft 264 kts 205°
2026-05-06 18:50 50.35324 14.09831 6671 ft 255 kts 205°
2026-05-06 18:50 50.33740 14.08708 6480 ft 233 kts 205°
2026-05-06 18:50 50.32297 14.07684 5937 ft 226 kts 205°
2026-05-06 18:51 50.30886 14.06674 5252 ft 226 kts 205°
2026-05-06 18:51 50.29435 14.05637 4581 ft 226 kts 205°
2026-05-06 18:51 50.28095 14.04686 4369 ft 203 kts 205°
2026-05-06 18:51 50.26821 14.03787 4024 ft 197 kts 205°
2026-05-06 18:52 50.25564 14.02906 4015 ft 199 kts 205°
2026-05-06 18:52 50.24273 14.02092 4010 ft 201 kts 194°
2026-05-06 18:52 50.22876 14.02078 4011 ft 203 kts 171°
2026-05-06 18:52 50.21559 14.02855 4005 ft 204 kts 149°
2026-05-06 18:53 50.20509 14.04330 4010 ft 206 kts 129°
2026-05-06 18:53 50.19673 14.06072 3966 ft 192 kts 127°
2026-05-06 18:53 50.18897 14.07695 3803 ft 182 kts 127°
2026-05-06 18:53 50.18159 14.09235 3596 ft 176 kts 127°
2026-05-06 18:54 50.17432 14.10750 3373 ft 174 kts 127°
2026-05-06 18:54 50.16711 14.12251 3142 ft 172 kts 126°
2026-05-06 18:54 50.15992 14.13750 2913 ft 172 kts 126°
2026-05-06 18:54 50.15278 14.15235 2688 ft 170 kts 126°
2026-05-06 18:55 50.14806 14.16207 2542 ft 168 kts 126°
2026-05-06 18:55 50.14129 14.17623 2375 ft 156 kts 124°
2026-05-06 18:55 50.13502 14.18943 2129 ft 148 kts 125°
2026-05-06 18:55 50.12893 14.20199 1915 ft 143 kts 126°
2026-05-06 18:56 50.12294 14.21419 1754 ft 141 kts 123°
2026-05-06 18:56 50.11703 14.22662 1564 ft 141 kts 124°
2026-05-06 18:56 50.11129 14.23858 1349 ft 139 kts 125°
2026-05-06 18:56 50.10551 14.25057 1164 ft 132 kts 124°
2026-05-06 18:57 50.10095 14.26001 1191 ft 85 kts 126°
2026-05-06 18:57 50.09871 14.26497 1204 ft 28 kts 99°
2026-05-06 18:57 50.09884 14.26757 1206 ft 19 kts 82°
2026-05-06 18:57 50.09888 14.26799 1206 ft 0 kts 82°
2026-05-06 18:58 50.09890 14.26819 1206 ft 7 kts 82°
2026-05-06 18:58 50.09902 14.26952 1206 ft 19 kts 82°
2026-05-06 18:58 50.09925 14.27125 1202 ft 10 kts 54°
2026-05-06 18:59 50.09972 14.27074 1198 ft 11 kts 302°
2026-05-06 18:59 50.10018 14.26969 1195 ft 13 kts 306°
2026-05-06 18:59 50.10084 14.26834 1187 ft 19 kts 308°
2026-05-06 18:59 50.10175 14.26650 1177 ft 23 kts 307°
2026-05-06 19:00 50.10242 14.26532 1177 ft 12 kts 344°
2026-05-06 19:00 50.10323 14.26597 1173 ft 13 kts 35°
2026-05-06 19:00 50.10343 14.26682 1171 ft 6 kts 111°
2026-05-06 19:00 50.10352 14.26728 1171 ft 4 kts 38°
2026-05-06 19:01 50.10362 14.26739 1172 ft 1 kts 34°
2026-05-06 19:01 50.10364 14.26740 1172 ft 0 kts 34°